Regional Weather Roundup
Issued by NWS

Home | Current Version | Previous Version | Text Only | Print | Product List | Glossary On
Versions: 1 2 3 4 5 6 7 8 9 10 11 12 13 14 15 16 17 18 19 20 21 22 23 24 25 26 27 28 29 30 31 32 33 34 35 36 37 38 39 40 41 42 43 44 45 46 47 48 49 50
000
ASUS46 KSTO 260104
RWRCA

NORTHERN AND CENTRAL CA REGIONAL WEATHER ROUNDUP
NATIONAL WEATHER SERVICE SACRAMENTO CA
600 PM PDT WED MAY 25 2016

NOTE: FAIR INDICATES FEW OR NO CLOUDS BELOW 12,000 FEET WITH NO
SIGNIFICANT WEATHER AND/OR OBSTRUCTIONS TO VISIBILITY.

CAZ001-003-260200-
NORTHWEST AREA

CITY           SKY/WX    TMP DP  RH WIND       PRES   REMARKS
CRESCENT CITY  PTSUNNY   58  52  80 N12       30.19S
UKIAH          MOSUNNY   72  50  45 N6        30.04S
$$

CAZ006-505>513-260200-
BAY AREA

CITY           SKY/WX    TMP DP  RH WIND       PRES   REMARKS
SANTA ROSA     MOSUNNY   71  51  49 SE15      30.01S
SAN RAFAEL     N/A       68  MM  MM MISG
NAPA           SUNNY     68  49  50 MISG      30.05S
CONCORD        SUNNY     69  48  47 SW17      30.06S
OAKLAND CITY   N/A       64  MM  MM MISG
OAKLAND        PTSUNNY   61  51  70 W17       30.12R
SAN FRAN CITY  N/A       59  MM  73 MISG
SAN FRAN ARPT  PTSUNNY   61  50  67 W22G29    30.11S
LIVERMORE      MOSUNNY   64  49  57 W20       30.09R
HAYWARD        CLOUDY    61  51  70 W14       30.12S
REDWOOD CITY   N/A       MM  MM  MM MISG
MOFFETT ARPT   SUNNY     67  48  50 NW8       30.11R
SAN JOSE ARPT  MOSUNNY   66  52  60 NW16      30.10S
$$
CAZ034-037-514>518-260200-
CENTRAL COAST

CITY           SKY/WX    TMP DP  RH WIND       PRES   REMARKS
WATSONVILLE    SUNNY     62  53  72 SE7       30.12F
SALINAS        CLOUDY    60  49  66 W9        30.15R
MONTEREY       CLOUDY    59  51  75 SW17      30.16S
SAN LUIS OBISP PTSUNNY   62  51  67 NW18G25   30.12S
SANTA MARIA    MOSUNNY   62  51  67 NW18      30.12S
$$
CAZ015-016-260200-
NORTHERN SACRAMENTO VALLEY

CITY           SKY/WX    TMP DP  RH WIND       PRES   REMARKS
REDDING        MOSUNNY   79  49  34 SW8       29.94S
RED BLUFF      PTSUNNY   84  43  23 N10       29.95F
OROVILLE       SUNNY     80  50  34 CALM      29.98F
$$
CAZ016>018-260200-
SOUTHERN SACRAMENTO VALLEY

CITY           SKY/WX    TMP DP  RH WIND       PRES   REMARKS
AUBURN         PTSUNNY   72  52  49 W5        30.05S
BEALE AFB      SUNNY     80  51  35 SW3       29.95F
LINCOLN        FAIR      81  45  28 W3        29.98S
MARYSVILLE     SUNNY     81  50  33 MISG      29.97F
SAC INTL ARPT  MOSUNNY   77  54  44 S17       29.98S
MATHER AIRPORT PTSUNNY   77  54  44 SW15      29.99
DOWNTOWN SAC   N/A       78  MM  MM MISG
SAC EXEC ARPT  SUNNY     75  53  46 SW18      30.00S
VACAVILLE      SUNNY     76  52  43 SW15G22   30.01S
TRAVIS AFB     SUNNY     71  51  50 SW23G31   29.99F
$$
CAZ019>021-260200-
SAN JOAQUIN VALLEY

CITY           SKY/WX    TMP DP  RH WIND       PRES   REMARKS
STOCKTON       SUNNY     75  48  38 W24       30.02R
MODESTO        SUNNY     79  49  34 NW17G23   30.00S
MERCED         MOSUNNY   79  46  31 NW12      30.00S
LEMOORE        PTSUNNY   80  43  26 N10       30.01S
FRESNO         PTSUNNY   73  51  46 E14       30.02S
HANFORD        MOSUNNY   77  44  30 N7        30.01F
PORTERVILLE    MOSUNNY   77  48  35 N8        30.03R
BAKERSFIELD    SUNNY     77  43  29 NW10      30.01F
$$
CAZ011-012-071-260200-
NORTHERN MOUNTAINS

CITY           SKY/WX    TMP DP  RH WIND       PRES   REMARKS
YREKA          MOSUNNY   68  39  34 N16G23    30.09R
MOUNT SHASTA   MOSUNNY   68  39  34 VRB7      30.08R
ALTURAS        PTSUNNY   62  36  37 NW10      30.08S
$$
CAZ011-012-071-260200-
SIERRA NEVADA MTNS

CITY           SKY/WX    TMP DP  RH WIND       PRES   REMARKS
BLUE CANYON    LGT RAIN  49  47  93 E3        30.16R
TRUCKEE        PTSUNNY   46  43  87 E3        30.16R
TAHOE VLY ARPT CLOUDY    49  40  71 N9G18     30.15R
MAMMOTH LAKES  RAIN      40  38  94 S5        30.14R
$$



USA.gov is the U.S. government's official web portal to all federal, state and local government web resources and services.